Weather History for Fort Bragg, NC

Change the Weather History Date:

Wednesday, November 27, 2013

  Actual Average Record
Temperature  
Mean Temperature 50 °F -  
Max Temperature 68 °F 59 °F 80 °F (2001)
Min Temperature 30 °F 38 °F 30 °F (1996)
Degree Days  
Heating Degree Days 16    
Moisture  
Dew Point 47 °F    
Average Humidity 97    
Maximum Humidity 100    
Minimum Humidity 58    
Precipitation  
Precipitation 0.80 in - - ()
Sea Level Pressure  
Sea Level Pressure 29.64 in    
Wind  
Wind Speed 11 mph (NW)    
Max Wind Speed 23 mph    
Max Gust Speed 30 mph    
Visibility 9 miles    
Events Rain    
Averages and records for this station are not official NWS values.
T = Trace of Precipitation, MM = Missing Value Source: NWS Daily Summary

Daily Weather History Graph

Daily Weather History Graph

Search for Another Location

Airport:

Trip Planner

Search our weather history database for the weather conditions in past years. The results will help you decide how hot, cold, wet, or windy it might be!

Date:

Astronomy

Nov. 27, 2013 Rise Set
Actual Time 7:02 AM EST 5:04 PM EST
Civil Twilight 6:34 AM EST 5:32 PM EST
Nautical Twilight 6:03 AM EST 6:03 PM EST
Astronomical Twilight 5:32 AM EST 6:33 PM EST
Moon 1:14 AM EST (11/27) 1:29 PM EST (11/27)
Length of Visible Light 10h 57m
Length of Day
10h 02m
Waning Crescent, 32% of the Moon is Illuminated
Nov 27
Waning Crescent
Dec 2
New
Dec 9
First Quarter
Dec 17
Full
Dec 25
Last Quarter

Hourly Weather History & Observations

Time (EST) Temp. Windchill Dew Point Humidity Pressure Visibility Wind Dir Wind Speed Gust Speed Precip Events Conditions
12:52 AM 68.0 °F - 68.0 °F 100% 29.54 in 10.0 mi South 10.4 mph - N/A   Mostly Cloudy
12:58 AM 67.6 °F - 67.6 °F 100% 29.55 in 10.0 mi South 8.1 mph - N/A   Mostly Cloudy
1:02 AM 68.0 °F - 68.0 °F 100% 29.54 in 10.0 mi South 8.1 mph - N/A   Mostly Cloudy
1:18 AM 68.0 °F - 68.0 °F 100% 29.54 in 10.0 mi South 9.2 mph - N/A   Mostly Cloudy
1:46 AM 68.0 °F - 68.0 °F 100% 29.53 in 10.0 mi South 11.5 mph - N/A   Mostly Cloudy
1:48 AM 68.0 °F - 68.0 °F 100% 29.53 in 10.0 mi South 11.5 mph - N/A   Mostly Cloudy
1:50 AM 68.0 °F - 68.0 °F 100% 29.54 in 10.0 mi South 10.4 mph - N/A Rain Light Rain
1:58 AM 67.3 °F - 66.9 °F 99% 29.54 in 10.0 mi South 10.4 mph - 0.00 in Rain Light Rain
2:06 AM 66.2 °F - 66.2 °F 100% 29.53 in 10.0 mi South 9.2 mph 17.3 mph N/A Rain Light Rain
2:31 AM 66.2 °F - 66.2 °F 100% 29.52 in 10.0 mi South 10.4 mph - N/A   Overcast
2:39 AM 66.2 °F - 66.2 °F 100% 29.51 in 10.0 mi South 11.5 mph - N/A Rain Light Rain
2:43 AM 66.2 °F - 66.2 °F 100% 29.51 in 10.0 mi South 10.4 mph - N/A Rain Light Rain
2:47 AM 66.2 °F - 66.2 °F 100% 29.50 in 10.0 mi South 12.7 mph 18.4 mph N/A Rain Light Rain
2:51 AM 66.2 °F - 66.2 °F 100% 29.50 in 10.0 mi South 10.4 mph 18.4 mph N/A Rain Light Rain
2:58 AM 66.0 °F - 66.0 °F 100% 29.50 in 10.0 mi South 11.5 mph 18.4 mph 0.02 in Rain Light Rain
3:06 AM 66.2 °F - 66.2 °F 100% 29.49 in 10.0 mi SW 16.1 mph 19.6 mph N/A Rain Light Rain
3:08 AM 66.2 °F - 66.2 °F 100% 29.50 in 10.0 mi West 23.0 mph 26.5 mph N/A   Light Drizzle
3:12 AM 64.4 °F - 62.6 °F 94% 29.51 in 10.0 mi WNW 16.1 mph 26.5 mph N/A Rain Light Rain
3:28 AM 55.4 °F - 55.4 °F 100% 29.53 in 4.0 mi WNW 11.5 mph 23.0 mph N/A Rain Rain
3:30 AM 55.4 °F - 55.4 °F 100% 29.53 in 6.0 mi WNW 12.7 mph 23.0 mph N/A Rain Rain
3:58 AM 54.7 °F - 54.7 °F 100% 29.52 in 10.0 mi NNW 5.8 mph - 0.12 in   Light Drizzle
4:00 AM 55.4 °F - 55.4 °F 100% 29.51 in 10.0 mi NNW 5.8 mph - N/A   Overcast
4:01 AM 55.4 °F - 55.4 °F 100% 29.51 in 10.0 mi NNW 5.8 mph - N/A Rain Light Rain
4:21 AM 53.6 °F - 53.6 °F 100% 29.51 in 10.0 mi NW 6.9 mph - N/A Rain Light Rain
4:23 AM 53.6 °F - 53.6 °F 100% 29.51 in 10.0 mi NW 6.9 mph - N/A Rain Light Rain
4:43 AM 51.8 °F - 51.8 °F 100% 29.51 in 4.0 mi NNW 9.2 mph - N/A Rain Rain
4:49 AM 51.8 °F - 51.8 °F 100% 29.51 in 6.0 mi NW 8.1 mph - N/A Rain Heavy Rain
4:58 AM 52.2 °F - 52.2 °F 100% 29.52 in 5.0 mi NNW 9.2 mph - 0.31 in Rain Heavy Rain
5:10 AM 51.8 °F - 51.8 °F 100% 29.51 in 7.0 mi NW 10.4 mph - N/A Rain Rain
5:16 AM 51.8 °F - 51.8 °F 100% 29.51 in 8.0 mi NNW 11.5 mph - N/A Rain Rain
5:22 AM 51.8 °F - 51.8 °F 100% 29.51 in 6.0 mi NNW 10.4 mph - N/A Rain Heavy Rain
5:28 AM 50.0 °F - 50.0 °F 100% 29.51 in 8.0 mi North 8.1 mph - N/A Rain Rain
5:42 AM 50.0 °F - 50.0 °F 100% 29.51 in 10.0 mi North 8.1 mph - N/A Rain Light Rain
5:44 AM 50.0 °F - 50.0 °F 100% 29.50 in 10.0 mi Variable 6.9 mph - N/A Rain Light Rain
5:46 AM 50.0 °F - 50.0 °F 100% 29.50 in 10.0 mi North 6.9 mph - N/A Rain Light Rain
5:50 AM 50.0 °F - 50.0 °F 100% 29.50 in 10.0 mi North 6.9 mph - N/A Rain Light Rain
5:58 AM 49.8 °F - 49.6 °F 99% 29.51 in 10.0 mi North 5.8 mph - 0.12 in Rain Light Rain
5:59 AM 50.0 °F - 50.0 °F 100% 29.50 in 10.0 mi North 5.8 mph - N/A   Overcast
6:05 AM 50.0 °F - 50.0 °F 100% 29.50 in 10.0 mi North 4.6 mph - N/A   Overcast
6:31 AM 50.0 °F - 50.0 °F 100% 29.52 in 10.0 mi NNW 11.5 mph - N/A Rain Light Rain
6:49 AM 50.0 °F - 48.2 °F 94% 29.53 in 10.0 mi North 8.1 mph - N/A Rain Light Rain
6:55 AM 48.2 °F - 48.2 °F 100% 29.52 in 10.0 mi NNW 10.4 mph - N/A Rain Rain
6:57 AM 48.2 °F - 48.2 °F 100% 29.52 in 10.0 mi North 8.1 mph - N/A Rain Light Rain
6:58 AM 49.1 °F - 48.7 °F 99% 29.53 in 10.0 mi North 6.9 mph - 0.03 in Rain Light Rain
7:32 AM 48.2 °F - 48.2 °F 100% 29.53 in 10.0 mi NNW 8.1 mph - N/A Rain Light Rain
7:42 AM 48.2 °F - 48.2 °F 100% 29.54 in 10.0 mi NNW 5.8 mph - N/A Rain Light Rain
7:52 AM 48.2 °F - 48.2 °F 100% 29.54 in 9.0 mi NNW 9.2 mph - N/A Rain Light Rain
7:54 AM 48.2 °F - 48.2 °F 100% 29.54 in 10.0 mi NNW 8.1 mph - N/A Rain Light Rain
7:56 AM 48.2 °F - 48.2 °F 100% 29.54 in 10.0 mi NNW 8.1 mph - N/A Rain Light Rain
7:58 AM 48.6 °F - 48.2 °F 99% 29.54 in 10.0 mi North 8.1 mph - 0.05 in Rain Light Rain
8:38 AM 48.2 °F - 48.2 °F 100% 29.54 in 10.0 mi NNW 9.2 mph - N/A Rain Light Rain
8:40 AM 48.2 °F - 48.2 °F 100% 29.54 in 10.0 mi NNW 11.5 mph - N/A Rain Light Rain
8:42 AM 48.2 °F - 48.2 °F 100% 29.55 in 10.0 mi NNW 9.2 mph - N/A Rain Light Rain
8:44 AM 48.2 °F - 48.2 °F 100% 29.55 in 10.0 mi NNW 8.1 mph - N/A Rain Light Rain
8:50 AM 48.2 °F - 48.2 °F 100% 29.55 in 10.0 mi NNW 12.7 mph - N/A Rain Rain
8:56 AM 48.2 °F - 48.2 °F 100% 29.55 in 10.0 mi NNW 11.5 mph - N/A Rain Light Rain
8:58 AM 47.8 °F - 47.7 °F 99% 29.56 in 10.0 mi NNW 12.7 mph - 0.04 in Rain Light Rain
9:00 AM 48.2 °F - 48.2 °F 100% 29.55 in 10.0 mi NNW 13.8 mph - N/A Rain Rain
9:18 AM 46.4 °F 39.5 °F 46.4 °F 100% 29.55 in 10.0 mi NW 17.3 mph 24.2 mph N/A Rain Light Rain
9:48 AM 44.6 °F 38.8 °F 44.6 °F 100% 29.57 in 10.0 mi North 11.5 mph 23.0 mph N/A Rain Light Rain
9:58 AM 45.0 °F 39.3 °F 44.6 °F 99% 29.57 in 10.0 mi North 11.5 mph 21.9 mph 0.03 in Rain Rain
10:33 AM 42.8 °F 35.1 °F 42.8 °F 100% 29.57 in 10.0 mi NNW 16.1 mph 21.9 mph N/A   Overcast
10:58 AM 43.3 °F 36.8 °F 43.0 °F 99% 29.59 in 10.0 mi NW 12.7 mph 21.9 mph 0.05 in   Overcast
11:22 AM 42.8 °F 35.1 °F 41.0 °F 93% 29.59 in 10.0 mi NNW 16.1 mph 26.5 mph N/A   Overcast
11:40 AM 42.8 °F 35.4 °F 42.8 °F 100% 29.62 in 10.0 mi NW 15.0 mph 20.7 mph N/A Rain Light Rain
11:44 AM 42.8 °F 35.1 °F 42.8 °F 100% 29.63 in 10.0 mi NW 16.1 mph 23.0 mph N/A Rain Light Rain
11:58 AM 42.1 °F 35.2 °F 41.7 °F 99% 29.64 in 10.0 mi NW 12.7 mph 21.9 mph 0.01 in Rain Light Rain
12:07 PM 42.8 °F 37.0 °F 41.0 °F 93% 29.63 in 10.0 mi NW 10.4 mph - N/A   Overcast
12:13 PM 42.8 °F 36.6 °F 41.0 °F 93% 29.63 in 9.0 mi NW 11.5 mph - N/A Rain Light Rain
12:23 PM 42.8 °F 35.8 °F 41.0 °F 93% 29.63 in 6.0 mi NW 13.8 mph 19.6 mph N/A Rain Light Rain
12:35 PM 41.0 °F 33.1 °F 41.0 °F 100% 29.65 in 6.0 mi NW 15.0 mph 20.7 mph N/A Rain Light Rain
12:43 PM 41.0 °F 33.1 °F 41.0 °F 100% 29.66 in 7.0 mi NW 15.0 mph 20.7 mph N/A Rain Light Rain
12:53 PM 41.0 °F 33.5 °F 41.0 °F 100% 29.66 in 7.0 mi NW 13.8 mph 24.2 mph N/A Rain Light Rain
12:55 PM 41.0 °F 33.9 °F 41.0 °F 100% 29.66 in 8.0 mi NW 12.7 mph 19.6 mph N/A Rain Light Rain
12:58 PM 41.2 °F 33.7 °F 40.8 °F 99% 29.67 in 8.0 mi NW 13.8 mph 19.6 mph 0.00 in Rain Light Rain
12:59 PM 41.0 °F 33.9 °F 41.0 °F 100% 29.66 in 8.0 mi NW 12.7 mph 19.6 mph N/A   Overcast
1:03 PM 41.0 °F 31.9 °F 41.0 °F 100% 29.67 in 9.0 mi NW 19.6 mph 28.8 mph N/A Rain Light Rain
1:04 PM 41.0 °F 32.5 °F 41.0 °F 100% 29.67 in 9.0 mi NW 17.3 mph 28.8 mph N/A   Overcast
1:07 PM 41.0 °F 32.8 °F 41.0 °F 100% 29.67 in 10.0 mi NW 16.1 mph 28.8 mph N/A Rain Light Rain
1:11 PM 41.0 °F 33.1 °F 41.0 °F 100% 29.67 in 10.0 mi NW 15.0 mph 28.8 mph N/A Rain Light Rain
1:13 PM 41.0 °F 32.8 °F 41.0 °F 100% 29.67 in 10.0 mi NW 16.1 mph 23.0 mph N/A Rain Light Rain
1:23 PM 41.0 °F 32.2 °F 39.2 °F 93% 29.68 in 6.0 mi NW 18.4 mph 25.3 mph N/A   Overcast
1:40 PM 41.0 °F 33.1 °F 41.0 °F 100% 29.69 in 10.0 mi NW 15.0 mph 21.9 mph N/A   Overcast
1:54 PM 41.0 °F 32.8 °F 41.0 °F 100% 29.69 in 10.0 mi NNW 16.1 mph 26.5 mph N/A   Mostly Cloudy
1:58 PM 40.8 °F 32.6 °F 40.6 °F 99% 29.70 in 10.0 mi NW 16.1 mph 26.5 mph 0.01 in   Overcast
2:08 PM 41.0 °F 33.5 °F 41.0 °F 100% 29.71 in 10.0 mi NW 13.8 mph 21.9 mph N/A   Overcast
2:09 PM 41.0 °F 33.9 °F 41.0 °F 100% 29.71 in 10.0 mi NW 12.7 mph 21.9 mph N/A Rain Light Rain
2:15 PM 41.0 °F 32.5 °F 41.0 °F 100% 29.71 in 10.0 mi NW 17.3 mph 25.3 mph N/A   Overcast
2:19 PM 41.0 °F 32.5 °F 41.0 °F 100% 29.71 in 10.0 mi NNW 17.3 mph 25.3 mph N/A   Overcast
2:21 PM 41.0 °F 33.5 °F 41.0 °F 100% 29.72 in 10.0 mi NW 13.8 mph 25.3 mph N/A Rain Light Rain
2:39 PM 41.0 °F 32.2 °F 39.2 °F 93% 29.74 in 10.0 mi NW 18.4 mph 28.8 mph N/A   Overcast
2:49 PM 41.0 °F 33.1 °F 39.2 °F 93% 29.75 in 10.0 mi NW 15.0 mph 25.3 mph N/A   Scattered Clouds
2:58 PM 40.3 °F 31.9 °F 38.8 °F 95% 29.76 in 10.0 mi NW 16.1 mph 25.3 mph 0.01 in   Scattered Clouds
3:18 PM 41.0 °F 32.8 °F 39.2 °F 93% 29.78 in 10.0 mi NW 16.1 mph 24.2 mph N/A   Mostly Cloudy
3:23 PM 41.0 °F 31.6 °F 37.4 °F 87% 29.78 in 10.0 mi NNW 20.7 mph 29.9 mph N/A   Mostly Cloudy
3:33 PM 41.0 °F 32.2 °F 37.4 °F 87% 29.80 in 10.0 mi NW 18.4 mph 26.5 mph N/A   Mostly Cloudy
3:35 PM 39.2 °F 32.0 °F 37.4 °F 93% 29.80 in 10.0 mi NW 11.5 mph 23.0 mph N/A   Scattered Clouds
3:46 PM 39.2 °F 31.2 °F 37.4 °F 93% 29.81 in 10.0 mi NNW 13.8 mph 18.4 mph N/A   Scattered Clouds
3:54 PM 39.2 °F 30.2 °F 37.4 °F 93% 29.82 in 10.0 mi NW 17.3 mph - N/A   Mostly Cloudy
3:58 PM 39.6 °F 31.0 °F 38.1 °F 95% 29.83 in 10.0 mi NW 16.1 mph 24.2 mph 0.00 in   Mostly Cloudy
4:05 PM 39.2 °F 30.8 °F 37.4 °F 93% 29.83 in 10.0 mi NW 15.0 mph 25.3 mph N/A   Mostly Cloudy
4:09 PM 39.2 °F 31.2 °F 37.4 °F 93% 29.84 in 10.0 mi NW 13.8 mph 25.3 mph N/A   Scattered Clouds
4:58 PM 39.4 °F 33.2 °F 37.8 °F 94% 29.88 in 10.0 mi NW 9.2 mph - 0.00 in   Mostly Cloudy
5:08 PM 39.2 °F 32.0 °F 37.4 °F 93% 29.87 in 10.0 mi WNW 11.5 mph - N/A   Mostly Cloudy
5:10 PM 39.2 °F 33.0 °F 37.4 °F 93% 29.88 in 10.0 mi NW 9.2 mph - N/A   Overcast
5:12 PM 39.2 °F 32.5 °F 39.2 °F 100% 29.88 in 10.0 mi WNW 10.4 mph - N/A   Overcast
5:13 PM 39.2 °F 31.2 °F 39.2 °F 100% 29.88 in 10.0 mi WNW 13.8 mph - N/A   Overcast
5:21 PM 39.2 °F 33.6 °F 39.2 °F 100% 29.89 in 10.0 mi NW 8.1 mph - N/A   Mostly Cloudy
5:24 PM 39.2 °F 33.6 °F 39.2 °F 100% 29.89 in 10.0 mi WNW 8.1 mph - N/A   Mostly Cloudy
5:58 PM 38.5 °F 33.4 °F 37.6 °F 97% 29.94 in 10.0 mi WNW 6.9 mph - 0.00 in   Mostly Cloudy
6:58 PM 37.2 °F 29.6 °F 34.3 °F 89% 29.99 in 10.0 mi NW 11.5 mph - N/A   Partly Cloudy
7:58 PM 35.6 °F 26.2 °F 23.7 °F 62% 30.04 in 10.0 mi NW 15.0 mph 25.3 mph N/A   Clear
8:58 PM 33.4 °F 24.3 °F 20.3 °F 59% 30.09 in 10.0 mi NW 12.7 mph 20.7 mph N/A   Clear
9:58 PM 32.4 °F 24.0 °F 18.9 °F 58% 30.13 in 10.0 mi NW 10.4 mph - N/A   Clear
10:58 PM 31.5 °F 23.5 °F 18.5 °F 59% 30.17 in 10.0 mi WNW 9.2 mph - N/A   Clear
11:58 PM 30.4 °F 22.2 °F 18.1 °F 60% 30.20 in 10.0 mi WNW 9.2 mph - N/A   Clear